Overview Statistics Trail Chart Weather Telemetry Raw packets
 

This is the latest recevied weather packets stored in our database for station/object 4S6DRJ-13. If no packets are shown the sender has not sent any weather packets the latest 10 day(s).

<< 549 550 551 552 553 554 555 >>
Time Temp. Humidity Pressure Rain* Wind** Luminosity Snow
1787603187 25.56° C 91% 1010.1 hPa 0 mm 1.79 m/s, 148° 0 W/m² -
1787603126 25.56° C 91% 1010 hPa 0 mm 0.89 m/s, 210° 0 W/m² -
1787603065 25.56° C 91% 1010.1 hPa 0 mm 0.45 m/s, 142° 0 W/m² -
1787603004 25.56° C 91% 1010 hPa 0 mm 0.89 m/s, 113° 0 W/m² -
1787602943 25.56° C 91% 1010.2 hPa 0 mm 1.34 m/s, 135° 0 W/m² -
1787602882 25.56° C 91% 1010.2 hPa 0 mm 0.45 m/s, 154° 0 W/m² -
1787602821 25.56° C 91% 1010.1 hPa 0 mm 0.45 m/s, 176° 0 W/m² -
1787602760 25.56° C 91% 1010.1 hPa 0 mm 1.34 m/s, 134° 0 W/m² -
1787602700 25.56° C 91% 1010.2 hPa 0 mm 1.79 m/s, 130° 0 W/m² -
1787602638 25.56° C 91% 1010.3 hPa 0 mm 0.89 m/s, 172° 0 W/m² -
1787602578 25.56° C 91% 1010.2 hPa 0 mm 1.34 m/s, 118° 0 W/m² -
1787602517 25.56° C 91% 1010.2 hPa 0 mm 1.79 m/s, 119° 0 W/m² -
1787602455 25.56° C 91% 1010.1 hPa 0 mm 1.79 m/s, 106° 0 W/m² -
1787602394 25.56° C 91% 1010.1 hPa 0 mm 1.34 m/s, 149° 0 W/m² -
1787602333 25.56° C 91% 1010.3 hPa 0 mm 0.89 m/s, 86° 0 W/m² -
1787602273 25.56° C 91% 1010.3 hPa 0 mm 0.89 m/s, 130° 0 W/m² -
1787602212 25.56° C 91% 1010.3 hPa 0 mm 0.45 m/s, 116° 0 W/m² -
1787602150 25.56° C 90% 1010.3 hPa 0 mm 1.34 m/s, 124° 0 W/m² -
1787602089 25.56° C 90% 1010.2 hPa 0 mm 0.89 m/s, 181° 0 W/m² -
1787602028 26.11° C 90% 1010.2 hPa 0 mm 1.34 m/s, 135° 0 W/m² -
1787601967 26.11° C 90% 1010.3 hPa 0 mm 0.45 m/s, 152° 0 W/m² -
1787601908 26.11° C 90% 1010.2 hPa 0 mm 1.79 m/s, 113° 0 W/m² -
1787601846 26.11° C 90% 1010.1 hPa 0 mm 0.89 m/s, 106° 0 W/m² -
1787601784 26.11° C 90% 1010.1 hPa 0 mm 0.89 m/s, 124° 0 W/m² -
1787601724 26.11° C 90% 1010.1 hPa 0 mm 0.89 m/s, 148° 0 W/m² -

* Rain latest hour (hover to see other rain measurements)
** Current wind speed in m/s (hover to see current wind gust speed)